Time,TemperatureF,DewpointF,PressureIn,WindDirection,WindDirectionDegrees,WindSpeedMPH,WindSpeedGustMPH,Humidity,HourlyPrecipIn,Conditions,Clouds,dailyrainin,SoftwareType,DateUTC
2013-03-21 00:08:00,32.7,21.5,29.74,NNW,337,8.3,-999.0,63,-99.99,,,0.00,Acu-Link.com,2013-03-21 04:08:00,
2013-03-21 00:23:00,32.5,21.7,29.75,NNW,337,8.3,-999.0,64,-99.99,,,0.00,Acu-Link.com,2013-03-21 04:23:00,
2013-03-21 00:38:00,32.4,20.9,29.75,NNW,337,7.8,-999.0,62,-99.99,,,0.00,Acu-Link.com,2013-03-21 04:38:00,
2013-03-21 00:54:00,31.8,20.3,29.74,NNE,22,7.8,-999.0,62,-99.99,,,0.00,Acu-Link.com,2013-03-21 04:54:00,
2013-03-21 01:09:00,31.1,20.0,29.75,NNW,337,6.3,-999.0,63,-99.99,,,0.00,Acu-Link.com,2013-03-21 05:09:00,
2013-03-21 01:24:00,30.7,19.2,29.74,North,0,10.4,-999.0,62,-99.99,,,0.00,Acu-Link.com,2013-03-21 05:24:00,
2013-03-21 01:39:00,30.4,18.6,29.74,NNW,337,7.8,-999.0,61,-99.99,,,0.00,Acu-Link.com,2013-03-21 05:39:00,
2013-03-21 01:54:00,30.4,17.8,29.75,NNW,337,7.3,-999.0,59,-99.99,,,0.00,Acu-Link.com,2013-03-21 05:54:00,
2013-03-21 02:10:00,30.2,17.2,29.75,North,0,6.8,-999.0,58,-99.99,,,0.00,Acu-Link.com,2013-03-21 06:10:00,
2013-03-21 02:25:00,30.0,16.2,29.74,NNW,337,6.8,-999.0,56,-99.99,,,0.00,Acu-Link.com,2013-03-21 06:25:00,
2013-03-21 02:40:00,29.8,16.0,29.73,NW,315,6.8,-999.0,56,-99.99,,,0.00,Acu-Link.com,2013-03-21 06:40:00,
2013-03-21 02:55:00,29.7,15.5,29.73,NNW,337,6.8,-999.0,55,-99.99,,,0.00,Acu-Link.com,2013-03-21 06:55:00,
2013-03-21 03:11:00,29.7,15.5,29.73,NNW,337,4.7,-999.0,55,-99.99,,,0.00,Acu-Link.com,2013-03-21 07:11:00,
2013-03-21 03:56:00,28.8,16.7,29.72,NNW,337,7.8,-999.0,60,-99.99,,,0.00,Acu-Link.com,2013-03-21 07:56:00,
2013-03-21 04:11:00,28.4,16.3,29.73,NW,315,5.8,-999.0,60,-99.99,,,0.00,Acu-Link.com,2013-03-21 08:11:00,
2013-03-21 04:26:00,28.2,16.1,29.72,NNE,22,8.3,-999.0,60,-99.99,,,0.00,Acu-Link.com,2013-03-21 08:26:00,
2013-03-21 04:42:00,27.9,15.1,29.71,NNW,337,6.8,-999.0,58,-99.99,,,0.00,Acu-Link.com,2013-03-21 08:42:00,
2013-03-21 04:57:00,27.7,14.5,29.71,NW,315,10.4,-999.0,57,-99.99,,,0.00,Acu-Link.com,2013-03-21 08:57:00,
2013-03-21 05:12:00,26.4,14.4,29.71,NNE,22,3.2,-999.0,60,-99.99,,,0.00,Acu-Link.com,2013-03-21 09:12:00,
2013-03-21 05:27:00,26.1,14.5,29.71,NNE,22,2.2,-999.0,61,-99.99,,,0.00,Acu-Link.com,2013-03-21 09:27:00,
2013-03-21 05:42:00,25.5,13.9,29.71,NNW,337,3.7,-999.0,61,-99.99,,,0.00,Acu-Link.com,2013-03-21 09:42:00,
2013-03-21 05:58:00,25.0,13.8,29.71,NW,315,5.8,-999.0,62,-99.99,,,0.00,Acu-Link.com,2013-03-21 09:58:00,
2013-03-21 06:13:00,25.3,13.8,29.70,NW,315,6.3,-999.0,61,-99.99,,,0.00,Acu-Link.com,2013-03-21 10:13:00,
2013-03-21 06:28:00,24.1,13.7,29.72,NW,315,3.7,-999.0,64,-99.99,,,0.00,Acu-Link.com,2013-03-21 10:28:00,
2013-03-21 06:43:00,24.3,13.5,29.71,NW,315,1.7,-999.0,63,-99.99,,,0.00,Acu-Link.com,2013-03-21 10:43:00,
2013-03-21 06:58:00,23.4,12.7,29.72,WSW,247,0.0,-999.0,63,-99.99,,,0.00,Acu-Link.com,2013-03-21 10:58:00,
2013-03-21 07:14:00,24.3,13.5,29.72,WNW,292,2.7,-999.0,63,-99.99,,,0.00,Acu-Link.com,2013-03-21 11:14:00,
2013-03-21 07:29:00,23.7,13.3,29.72,North,0,1.7,-999.0,64,-99.99,,,0.00,Acu-Link.com,2013-03-21 11:29:00,
2013-03-21 07:44:00,23.9,13.5,29.71,NW,315,2.2,-999.0,64,-99.99,,,0.00,Acu-Link.com,2013-03-21 11:44:00,
2013-03-21 07:59:00,24.1,14.1,29.72,NNW,337,4.2,-999.0,65,-99.99,,,0.00,Acu-Link.com,2013-03-21 11:59:00,
2013-03-21 08:15:00,25.5,14.3,29.73,NW,315,8.3,-999.0,62,-99.99,,,0.00,Acu-Link.com,2013-03-21 12:15:00,
2013-03-21 08:30:00,26.1,14.1,29.72,North,0,8.3,-999.0,60,-99.99,,,0.00,Acu-Link.com,2013-03-21 12:30:00,
2013-03-21 08:45:00,26.4,14.0,29.72,NNW,337,6.8,-999.0,59,-99.99,,,0.00,Acu-Link.com,2013-03-21 12:45:00,
2013-03-21 09:00:00,27.0,14.2,29.72,North,0,5.3,-999.0,58,-99.99,,,0.00,Acu-Link.com,2013-03-21 13:00:00,
2013-03-21 09:15:00,27.3,13.7,29.71,NW,315,10.9,-999.0,56,-99.99,,,0.00,Acu-Link.com,2013-03-21 13:15:00,
2013-03-21 09:31:00,27.3,13.7,29.71,NNW,337,7.3,-999.0,56,-99.99,,,0.00,Acu-Link.com,2013-03-21 13:31:00,
2013-03-21 10:01:00,26.6,14.6,29.72,NW,315,13.0,-999.0,60,-99.99,,,0.00,Acu-Link.com,2013-03-21 14:01:00,
2013-03-21 10:47:00,27.0,15.7,29.73,NNE,22,6.8,-999.0,62,-99.99,,,0.00,Acu-Link.com,2013-03-21 14:47:00,
2013-03-21 11:02:00,26.6,13.0,29.72,NNW,337,10.4,-999.0,56,-99.99,,,0.00,Acu-Link.com,2013-03-21 15:02:00,
2013-03-21 11:17:00,28.0,13.1,29.71,NNW,337,11.4,-999.0,53,-99.99,,,0.00,Acu-Link.com,2013-03-21 15:17:00,
2013-03-21 11:32:00,28.9,12.6,29.71,NNW,337,8.3,-999.0,50,-99.99,,,0.00,Acu-Link.com,2013-03-21 15:32:00,
2013-03-21 11:48:00,29.7,12.0,29.72,North,0,15.0,-999.0,47,-99.99,,,0.00,Acu-Link.com,2013-03-21 15:48:00,
2013-03-21 12:03:00,28.8,10.7,29.70,NNW,337,9.4,-999.0,46,-99.99,,,0.00,Acu-Link.com,2013-03-21 16:03:00,
2013-03-21 12:18:00,29.1,11.9,29.70,NW,315,9.9,-999.0,48,-99.99,,,0.00,Acu-Link.com,2013-03-21 16:18:00,
2013-03-21 12:33:00,30.0,12.7,29.70,North,0,9.4,-999.0,48,-99.99,,,0.00,Acu-Link.com,2013-03-21 16:33:00,
2013-03-21 12:48:00,28.2,10.6,29.70,WNW,292,10.9,-999.0,47,-99.99,,,0.00,Acu-Link.com,2013-03-21 16:48:00,
2013-03-21 13:04:00,29.7,11.0,29.69,NNW,337,10.9,-999.0,45,-99.99,,,0.00,Acu-Link.com,2013-03-21 17:04:00,
2013-03-21 13:19:00,28.9,10.8,29.69,NW,315,11.9,-999.0,46,-99.99,,,0.00,Acu-Link.com,2013-03-21 17:19:00,
2013-03-21 13:34:00,30.2,10.9,29.69,NNW,337,9.4,-999.0,44,-99.99,,,0.00,Acu-Link.com,2013-03-21 17:34:00,
2013-03-21 13:49:00,29.3,12.1,29.69,NNW,337,8.9,-999.0,48,-99.99,,,0.00,Acu-Link.com,2013-03-21 17:49:00,
2013-03-21 14:04:00,31.3,12.5,29.69,NNE,22,7.3,-999.0,45,-99.99,,,0.00,Acu-Link.com,2013-03-21 18:04:00,
2013-03-21 14:20:00,30.0,11.8,29.69,NNW,337,8.9,-999.0,46,-99.99,,,0.00,Acu-Link.com,2013-03-21 18:20:00,
2013-03-21 14:35:00,30.2,11.4,29.68,NW,315,14.5,-999.0,45,-99.99,,,0.00,Acu-Link.com,2013-03-21 18:35:00,
2013-03-21 14:50:00,28.8,9.7,29.68,NW,315,14.0,-999.0,44,-99.99,,,0.00,Acu-Link.com,2013-03-21 18:50:00,
2013-03-21 15:05:00,32.0,13.1,29.68,WSW,247,10.4,-999.0,45,-99.99,,,0.00,Acu-Link.com,2013-03-21 19:05:00,
2013-03-21 15:21:00,28.6,10.5,29.67,North,0,11.4,-999.0,46,-99.99,,,0.00,Acu-Link.com,2013-03-21 19:21:00,
2013-03-21 15:51:00,29.1,11.4,29.67,NNW,337,10.9,-999.0,47,-99.99,,,0.00,Acu-Link.com,2013-03-21 19:51:00,
2013-03-21 16:06:00,30.7,12.4,29.68,NNW,337,14.5,-999.0,46,-99.99,,,0.00,Acu-Link.com,2013-03-21 20:06:00,
2013-03-21 16:21:00,29.7,11.0,29.67,NW,315,13.5,-999.0,45,-99.99,,,0.00,Acu-Link.com,2013-03-21 20:21:00,
2013-03-21 16:37:00,30.6,11.8,29.69,NW,315,8.3,-999.0,45,-99.99,,,0.00,Acu-Link.com,2013-03-21 20:37:00,
2013-03-21 17:07:00,29.3,10.6,29.69,NNW,337,10.4,-999.0,45,-99.99,,,0.00,Acu-Link.com,2013-03-21 21:07:00,
2013-03-21 17:22:00,29.1,10.4,29.69,North,0,8.3,-999.0,45,-99.99,,,0.00,Acu-Link.com,2013-03-21 21:22:00,
2013-03-21 17:38:00,28.8,10.2,29.70,NW,315,16.6,-999.0,45,-99.99,,,0.00,Acu-Link.com,2013-03-21 21:38:00,
2013-03-21 17:53:00,28.4,10.3,29.71,NNW,337,14.5,-999.0,46,-99.99,,,0.00,Acu-Link.com,2013-03-21 21:53:00,
2013-03-21 18:08:00,28.6,10.5,29.71,NNW,337,11.9,-999.0,46,-99.99,,,0.00,Acu-Link.com,2013-03-21 22:08:00,
2013-03-21 18:23:00,28.2,11.1,29.71,North,0,13.5,-999.0,48,-99.99,,,0.00,Acu-Link.com,2013-03-21 22:23:00,
2013-03-21 18:38:00,27.9,10.8,29.71,NNW,337,13.0,-999.0,48,-99.99,,,0.00,Acu-Link.com,2013-03-21 22:38:00,
2013-03-21 18:54:00,27.7,10.1,29.72,NNW,337,14.5,-999.0,47,-99.99,,,0.00,Acu-Link.com,2013-03-21 22:54:00,
2013-03-21 19:09:00,27.5,9.9,29.72,NW,315,10.9,-999.0,47,-99.99,,,0.00,Acu-Link.com,2013-03-21 23:09:00,
2013-03-21 19:24:00,27.1,11.0,29.74,NNE,22,6.3,-999.0,50,-99.99,,,0.00,Acu-Link.com,2013-03-21 23:24:00,
2013-03-21 19:39:00,27.1,10.5,29.73,NW,315,8.3,-999.0,49,-99.99,,,0.00,Acu-Link.com,2013-03-21 23:39:00,
2013-03-21 19:54:00,26.8,11.1,29.74,ENE,67,5.8,-999.0,51,-99.99,,,0.00,Acu-Link.com,2013-03-21 23:54:00,
2013-03-21 20:10:00,27.0,11.7,29.75,NNW,337,10.9,-999.0,52,-99.99,,,0.00,Acu-Link.com,2013-03-22 00:10:00,
2013-03-21 20:25:00,26.8,11.1,29.74,NW,315,8.3,-999.0,51,-99.99,,,0.00,Acu-Link.com,2013-03-22 00:25:00,
2013-03-21 20:40:00,26.6,11.8,29.75,NW,315,5.3,-999.0,53,-99.99,,,0.00,Acu-Link.com,2013-03-22 00:40:00,
2013-03-21 20:55:00,26.1,11.8,29.76,North,0,1.7,-999.0,54,-99.99,,,0.00,Acu-Link.com,2013-03-22 00:55:00,
2013-03-21 21:11:00,26.2,11.9,29.76,North,0,4.7,-999.0,54,-99.99,,,0.00,Acu-Link.com,2013-03-22 01:11:00,
2013-03-21 21:41:00,26.1,11.8,29.76,NW,315,4.7,-999.0,54,-99.99,,,0.00,Acu-Link.com,2013-03-22 01:41:00,
2013-03-21 21:56:00,25.7,12.2,29.77,NW,315,4.2,-999.0,56,-99.99,,,0.00,Acu-Link.com,2013-03-22 01:56:00,
2013-03-21 22:11:00,25.2,11.7,29.77,West,270,2.2,-999.0,56,-99.99,,,0.00,Acu-Link.com,2013-03-22 02:11:00,
2013-03-21 22:27:00,24.3,12.1,29.77,SW,225,2.2,-999.0,59,-99.99,,,0.00,Acu-Link.com,2013-03-22 02:27:00,
2013-03-21 22:42:00,23.7,11.5,29.77,WSW,247,2.7,-999.0,59,-99.99,,,0.00,Acu-Link.com,2013-03-22 02:42:00,
2013-03-21 22:57:00,24.8,12.5,29.77,NNE,22,3.7,-999.0,59,-99.99,,,0.00,Acu-Link.com,2013-03-22 02:57:00,
2013-03-21 23:12:00,25.2,13.3,29.77,NNW,337,2.7,-999.0,60,-99.99,,,0.00,Acu-Link.com,2013-03-22 03:12:00,
2013-03-21 23:27:00,24.8,13.3,29.77,NNW,337,2.7,-999.0,61,-99.99,,,0.00,Acu-Link.com,2013-03-22 03:27:00,
2013-03-21 23:43:00,25.0,13.5,29.78,WNW,292,2.7,-999.0,61,-99.99,,,0.00,Acu-Link.com,2013-03-22 03:43:00,
2013-03-21 23:58:00,25.2,14.0,29.78,North,0,2.2,-999.0,62,-99.99,,,0.00,Acu-Link.com,2013-03-22 03:58:00,